| time (UTC) | temp C | wind direction | speed KPH | gust KPH | rain 1hr cm | rain 24hr cm | rain mn cm | humidity % | barometer mb |
| 20260506051017 | 23 | 135 | 4.8 | 12.9 | 0.00 | 0.00 | 0.00 | 93 | 1009.5 |
| 20260506045015 | 23 | 135 | 9.7 | 17.7 | 0.00 | 0.00 | 0.00 | 93 | 1009.3 |
| 20260506044017 | 23 | 135 | 6.4 | 14.5 | 0.00 | 0.00 | 0.00 | 93 | 1009.3 |
| 20260506043015 | 23 | 135 | 6.4 | 16.1 | 0.00 | 0.00 | 0.00 | 93 | 1009.4 |
| 20260506042015 | 23 | 135 | 9.7 | 16.1 | 0.00 | 0.00 | 0.00 | 92 | 1009.3 |
| 20260506041037 | 23 | 135 | 9.7 | 17.7 | 0.00 | 0.00 | 0.00 | 92 | 1009.4 |
| 20260506040017 | 23 | 135 | 8.0 | 19.3 | 0.00 | 0.00 | 0.00 | 91 | 1009.3 |
| 20260506035017 | 23 | 135 | 8.0 | 14.5 | 0.00 | 0.00 | 0.00 | 91 | 1009.0 |
| 20260506034037 | 23 | 135 | 8.0 | 17.7 | 0.00 | 0.00 | 0.00 | 91 | 1008.8 |
| 20260506033017 | 24 | 135 | 8.0 | 17.7 | 0.00 | 0.00 | 0.00 | 90 | 1008.7 |
| 20260506032018 | 24 | 135 | 8.0 | 16.1 | 0.00 | 0.00 | 0.00 | 90 | 1008.6 |
| 20260506031017 | 24 | 135 | 6.4 | 11.3 | 0.00 | 0.00 | 0.00 | 89 | 1008.6 |
| 20260506030017 | 24 | 135 | 9.7 | 19.3 | 0.00 | 0.00 | 0.00 | 89 | 1008.5 |
| 20260506025017 | 24 | 135 | 8.0 | 16.1 | 0.00 | 0.00 | 0.00 | 89 | 1008.2 |
| 20260506024037 | 24 | 135 | 8.0 | 16.1 | 0.00 | 0.00 | 0.00 | 88 | 1008.3 |
| 20260506023017 | 25 | 135 | 9.7 | 16.1 | 0.00 | 0.00 | 0.00 | 88 | 1008.0 |
| 20260506022017 | 25 | 135 | 8.0 | 16.1 | 0.00 | 0.00 | 0.00 | 88 | 1007.8 |
| 20260506021017 | 25 | 135 | 8.0 | 14.5 | 0.00 | 0.00 | 0.00 | 87 | 1007.7 |
| 20260506020018 | 25 | 135 | 6.4 | 16.1 | 0.00 | 0.00 | 0.00 | 86 | 1007.7 |
| 20260506015017 | 25 | 135 | 6.4 | 16.1 | 0.00 | 0.00 | 0.00 | 85 | 1007.7 |
| 20260506014017 | 25 | 135 | 6.4 | 12.9 | 0.00 | 0.00 | 0.00 | 84 | 1007.7 |
| 20260506013017 | 26 | 135 | 8.0 | 16.1 | 0.00 | 0.00 | 0.00 | 83 | 1007.7 |
| 20260506012017 | 26 | 158 | 4.8 | 11.3 | 0.00 | 0.00 | 0.00 | 83 | 1007.7 |
| 20260506011017 | 26 | 158 | 1.6 | 6.4 | 0.00 | 0.00 | 0.00 | 83 | 1007.5 |
| 20260506010017 | 26 | 158 | 4.8 | 9.7 | 0.00 | 0.00 | 0.00 | 82 | 1007.4 |
| 20260506005017 | 26 | 135 | 6.4 | 14.5 | 0.00 | 0.00 | 0.00 | 81 | 1007.0 |
| 20260506004037 | 26 | 135 | 6.4 | 16.1 | 0.00 | 0.00 | 0.00 | 81 | 1007.0 |
| 20260506003016 | 27 | 135 | 8.0 | 17.7 | 0.00 | 0.00 | 0.00 | 81 | 1006.9 |
| 20260506002017 | 27 | 135 | 8.0 | 17.7 | 0.00 | 0.00 | 0.00 | 80 | 1006.8 |
| 20260506001017 | 27 | 135 | 4.8 | 11.3 | 0.00 | 0.00 | 0.00 | 80 | 1006.7 |
| 20260506000056 | 27 | 135 | 9.7 | 19.3 | 0.00 | 0.00 | 0.00 | 79 | 1006.7 |
| 20260505235017 | 27 | 135 | 11.3 | 19.3 | 0.00 | 0.00 | 0.00 | 79 | 1006.6 |
| 20260505234017 | 27 | 135 | 8.0 | 19.3 | 0.00 | 0.00 | 0.00 | 78 | 1006.6 |
| 20260505233036 | 28 | 135 | 8.0 | 16.1 | 0.00 | 0.00 | 0.00 | 77 | 1006.6 |
| 20260505232017 | 28 | 135 | 9.7 | 17.7 | 0.00 | 0.00 | 0.00 | 76 | 1006.5 |
| 20260505231016 | 28 | 135 | 4.8 | 12.9 | 0.00 | 0.00 | 0.00 | 75 | 1006.6 |
| 20260505230016 | 28 | 158 | 8.0 | 14.5 | 0.00 | 0.00 | 0.00 | 74 | 1006.5 |
| 20260505225016 | 28 | 158 | 8.0 | 19.3 | 0.00 | 0.00 | 0.00 | 74 | 1006.6 |
| 20260505224016 | 28 | 158 | 9.7 | 17.7 | 0.00 | 0.00 | 0.00 | 74 | 1006.6 |
| 20260505223036 | 28 | 158 | 9.7 | 24.1 | 0.00 | 0.00 | 0.00 | 74 | 1006.6 |
| 20260505222016 | 28 | 158 | 9.7 | 25.7 | 0.00 | 0.00 | 0.00 | 74 | 1006.7 |
| 20260505221016 | 28 | 180 | 9.7 | 19.3 | 0.00 | 0.00 | 0.00 | 74 | 1006.7 |
| 20260505220017 | 28 | 158 | 8.0 | 22.5 | 0.00 | 0.00 | 0.00 | 73 | 1006.9 |
| 20260505215016 | 28 | 203 | 8.0 | 20.9 | 0.00 | 0.00 | 0.00 | 74 | 1006.9 |
| 20260505214016 | 28 | 180 | 12.9 | 24.1 | 0.00 | 0.00 | 0.00 | 72 | 1007.0 |
| 20260505213016 | 28 | 203 | 12.9 | 30.6 | 0.00 | 0.00 | 0.00 | 72 | 1007.1 |
| 20260505212016 | 28 | 203 | 12.9 | 25.7 | 0.00 | 0.00 | 0.00 | 73 | 1007.2 |
| 20260505211016 | 28 | 203 | 9.7 | 22.5 | 0.00 | 0.00 | 0.00 | 75 | 1007.5 |
| 20260505210016 | 27 | 203 | 12.9 | 24.1 | 0.00 | 0.00 | 0.00 | 75 | 1007.7 |
| 20260505205016 | 27 | 203 | 6.4 | 17.7 | 0.00 | 0.00 | 0.00 | 76 | 1007.9 |
| 20260505204056 | 27 | 203 | 12.9 | 27.4 | 0.00 | 0.00 | 0.00 | 76 | 1008.1 |
| 20260505203016 | 27 | 203 | 14.5 | 27.4 | 0.00 | 0.00 | 0.00 | 77 | 1008.2 |
| 20260505202016 | 27 | 158 | 8.0 | 20.9 | 0.00 | 0.00 | 0.00 | 77 | 1008.3 |
| 20260505201016 | 27 | 203 | 11.3 | 22.5 | 0.00 | 0.00 | 0.00 | 78 | 1008.3 |
| 20260505200036 | 27 | 225 | 9.7 | 22.5 | 0.00 | 0.00 | 0.00 | 77 | 1008.4 |
| 20260505195016 | 27 | 203 | 14.5 | 25.7 | 0.00 | 0.00 | 0.00 | 78 | 1008.7 |
| 20260505194016 | 27 | 158 | 16.1 | 30.6 | 0.00 | 0.00 | 0.00 | 77 | 1008.9 |
| 20260505193016 | 26 | 158 | 14.5 | 27.4 | 0.00 | 0.00 | 0.00 | 79 | 1008.9 |
| 20260505191016 | 26 | 158 | 12.9 | 25.7 | 0.00 | 0.00 | 0.00 | 80 | 1009.2 |
| 20260505190056 | 26 | 158 | 11.3 | 20.9 | 0.00 | 0.00 | 0.00 | 81 | 1009.0 |
| 20260505185016 | 26 | 203 | 11.3 | 29.0 | 0.00 | 0.00 | 0.00 | 82 | 1009.2 |
| 20260505184016 | 25 | 203 | 9.7 | 19.3 | 0.00 | 0.00 | 0.00 | 83 | 1009.3 |
| 20260505183016 | 25 | 203 | 8.0 | 20.9 | 0.00 | 0.00 | 0.00 | 83 | 1009.4 |
| 20260505182016 | 25 | 180 | 14.5 | 24.1 | 0.00 | 0.00 | 0.00 | 84 | 1009.5 |
| 20260505181016 | 25 | 203 | 12.9 | 27.4 | 0.00 | 0.00 | 0.00 | 84 | 1009.6 |
| 20260505180036 | 25 | 203 | 11.3 | 22.5 | 0.00 | 0.00 | 0.00 | 85 | 1009.5 |
| 20260505175016 | 25 | 225 | 12.9 | 22.5 | 0.00 | 0.00 | 0.00 | 84 | 1009.6 |
| 20260505174036 | 25 | 203 | 6.4 | 20.9 | 0.00 | 0.00 | 0.00 | 84 | 1009.7 |
| 20260505173016 | 25 | 180 | 9.7 | 20.9 | 0.00 | 0.00 | 0.00 | 85 | 1009.6 |
| 20260505172016 | 24 | 203 | 12.9 | 24.1 | 0.00 | 0.00 | 0.00 | 86 | 1009.5 |
| 20260505171016 | 24 | 203 | 8.0 | 19.3 | 0.00 | 0.00 | 0.00 | 87 | 1009.7 |
| 20260505170016 | 23 | 203 | 9.7 | 20.9 | 0.00 | 0.00 | 0.00 | 89 | 1009.8 |
| 20260505165016 | 23 | 203 | 14.5 | 29.0 | 0.00 | 0.00 | 0.00 | 89 | 1009.8 |
| 20260505164016 | 23 | 203 | 11.3 | 25.7 | 0.00 | 0.00 | 0.00 | 89 | 1010.0 |
| 20260505163016 | 23 | 225 | 11.3 | 24.1 | 0.00 | 0.00 | 0.00 | 89 | 1010.0 |
| 20260505162016 | 23 | 203 | 12.9 | 27.4 | 0.00 | 0.00 | 0.00 | 89 | 1010.0 |
| 20260505161016 | 23 | 203 | 14.5 | 29.0 | 0.00 | 0.00 | 0.00 | 89 | 1010.0 |
| 20260505153036 | 22 | 203 | 9.7 | 22.5 | 0.00 | 0.00 | 0.00 | 92 | 1009.6 |
| 20260505152015 | 22 | 203 | 9.7 | 22.5 | 0.00 | 0.00 | 0.00 | 92 | 1009.6 |
| 20260505151015 | 22 | 203 | 9.7 | 20.9 | 0.00 | 0.00 | 0.00 | 92 | 1009.7 |
| 20260505125015 | 21 | 203 | 9.7 | 22.5 | 0.00 | 0.00 | 0.00 | 92 | 1008.9 |
| 20260505124015 | 21 | 180 | 16.1 | 30.6 | 0.00 | 0.00 | 0.00 | 92 | 1008.8 |
| 20260505123015 | 21 | 203 | 12.9 | 24.1 | 0.00 | 0.00 | 0.00 | 92 | 1008.8 |
| 20260505122015 | 21 | 180 | 14.5 | 27.4 | 0.00 | 0.00 | 0.00 | 92 | 1008.6 |
| 20260505121035 | 21 | 180 | 12.9 | 32.2 | 0.00 | 0.00 | 0.00 | 92 | 1008.6 |
| 20260505120035 | 21 | 203 | 9.7 | 20.9 | 0.00 | 0.00 | 0.00 | 92 | 1008.3 |
| 20260505115015 | 21 | 180 | 11.3 | 25.7 | 0.00 | 0.00 | 0.00 | 92 | 1008.6 |
| 20260505114015 | 21 | 158 | 11.3 | 27.4 | 0.00 | 0.00 | 0.00 | 91 | 1008.4 |
| 20260505113015 | 21 | 203 | 11.3 | 20.9 | 0.00 | 0.00 | 0.00 | 91 | 1008.6 |
| 20260505112015 | 21 | 203 | 11.3 | 29.0 | 0.00 | 0.00 | 0.00 | 91 | 1008.4 |
| 20260505111015 | 21 | 203 | 8.0 | 20.9 | 0.00 | 0.00 | 0.00 | 91 | 1008.4 |
| 20260505102017 | 21 | 180 | 12.9 | 33.8 | 0.00 | 0.00 | 0.00 | 90 | 1008.6 |
| 20260505101015 | 21 | 180 | 11.3 | 25.7 | 0.00 | 0.00 | 0.00 | 90 | 1008.5 |
| 20260505100017 | 21 | 203 | 11.3 | 29.0 | 0.00 | 0.00 | 0.00 | 90 | 1008.7 |
| 20260505095037 | 21 | 203 | 12.9 | 24.1 | 0.00 | 0.00 | 0.00 | 91 | 1008.5 |
| 20260505094037 | 21 | 158 | 14.5 | 29.0 | 0.00 | 0.00 | 0.00 | 91 | 1008.8 |
| 20260505093017 | 21 | 158 | 14.5 | 32.2 | 0.00 | 0.00 | 0.00 | 91 | 1008.9 |
| 20260505092017 | 21 | 203 | 12.9 | 32.2 | 0.00 | 0.00 | 0.00 | 91 | 1008.8 |
| 20260505091017 | 21 | 203 | 9.7 | 19.3 | 0.00 | 0.00 | 0.00 | 90 | 1008.6 |
| 20260505090017 | 21 | 203 | 12.9 | 32.2 | 0.00 | 0.00 | 0.00 | 90 | 1008.6 |
| 20260505084017 | 21 | 203 | 11.3 | 22.5 | 0.00 | 0.00 | 0.00 | 90 | 1008.8 |
| 20260505083017 | 21 | 158 | 12.9 | 29.0 | 0.00 | 0.00 | 0.00 | 90 | 1009.0 |
| 20260505082017 | 21 | 180 | 12.9 | 24.1 | 0.00 | 0.00 | 0.00 | 90 | 1009.2 |
| 20260505081017 | 21 | 158 | 9.7 | 20.9 | 0.00 | 0.00 | 0.00 | 90 | 1009.5 |
| 20260505080017 | 21 | 158 | 9.7 | 20.9 | 0.00 | 0.00 | 0.00 | 90 | 1009.5 |
| 20260505075017 | 21 | 180 | 12.9 | 29.0 | 0.00 | 0.00 | 0.00 | 90 | 1009.4 |
| 20260505074017 | 21 | 158 | 12.9 | 30.6 | 0.00 | 0.00 | 0.00 | 90 | 1009.6 |
| 20260505073017 | 21 | 158 | 12.9 | 27.4 | 0.00 | 0.00 | 0.00 | 90 | 1009.8 |
| 20260505072017 | 21 | 180 | 12.9 | 29.0 | 0.00 | 0.00 | 0.00 | 90 | 1009.8 |
| 20260505071017 | 21 | 158 | 9.7 | 22.5 | 0.00 | 0.00 | 0.00 | 90 | 1010.0 |
| 20260505070017 | 21 | 158 | 12.9 | 29.0 | 0.00 | 0.00 | 0.00 | 90 | 1009.9 |
| 20260505065036 | 21 | 180 | 12.9 | 29.0 | 0.00 | 0.00 | 0.00 | 90 | 1010.2 |
| 20260505064057 | 21 | 158 | 12.9 | 25.7 | 0.00 | 0.00 | 0.00 | 90 | 1010.4 |
| 20260505063016 | 21 | 158 | 14.5 | 25.7 | 0.00 | 0.00 | 0.00 | 90 | 1010.4 |
| 20260505062017 | 20 | 158 | 12.9 | 22.5 | 0.00 | 0.00 | 0.00 | 91 | 1010.5 |
| 20260505061017 | 20 | 180 | 11.3 | 24.1 | 0.00 | 0.00 | 0.00 | 90 | 1010.3 |